Back to catalog

STARLINK-36754

AliveCommunicationsSSO
NORAD 67725·PAYLOAD·🇺🇸 United States

Launched Feb 11, 2026 from Vandenberg Space Force Base

Loading…

Next Passes (next 24 hours)

TLE

FreshSource: CelesTrak SupGP

Epoch: Sep 15, 2026, 03:53 UTC

1 67725C 26026E   26258.16229167 -.00012844  00000+0 -39869-3 0  2586
2 67725  97.2846 310.0223 0000862  82.5917 126.3347 15.33446960    12

Track STARLINK-36754 in real time with AllMySat

Download on the App Store